Regional Weather Roundup
Issued by NWS

Home | Current Version | Previous Version | Graphics & Text | Print | Product List | Glossary On
Versions: 1 2 3 4 5 6 7 8 9 10 11 12 13 14 15 16 17 18 19 20 21 22 23 24 25 26 27 28 29 30 31 32 33 34 35 36 37 38 39 40 41 42 43 44 45 46 47 48 49 50
000
ASUS44 KMEG 100300
RWRTN
TENNESSEE HOURLY STATE WEATHER ROUNDUP
NATIONAL WEATHER SERVICE MEMPHIS TN
1000 PM CDT WED JUL 09 2014

TNZ002-004-019-021-049-052-054-088>092-100400-
WEST TENNESSEE

CITY           SKY/WX    TMP DP  RH WIND       PRES   REMARKS
MEMPHIS INTL   PTCLDY    77  71  82 CALM      30.03R
NWS MEMPHIS      N/A     73 N/A N/A MISG        N/A
JACKSON        CLEAR     73  70  90 S3        30.02R
DYERSBURG      CLEAR     72  61  68 CALM      30.03R
UNION CITY     CLEAR     72  64  78 CALM      30.01R
LEXINGTON        N/A     72  70  94 CALM      30.02R VSB 1
$$

TNZ008-025-027-028-033-062-065-066-100400-
NORTH MIDDLE TENNESSEE

CITY           SKY/WX    TMP DP  RH WIND       PRES   REMARKS
NASHVILLE      PTCLDY    77  69  76 CALM      30.03R
CLARKSVILLE    CLEAR     70  60  70 NW5       30.02R
COOKEVILLE     MOCLDY    73  72  94 CALM      30.05R
CROSSVILLE     MOCLDY    72  68  87 CALM      30.10R
$$

TNZ061-075-076-078-094-096-097-100400-
SOUTH MIDDLE TENNESSEE

CITY           SKY/WX    TMP DP  RH WIND       PRES   REMARKS
TULLAHOMA      MOCLDY    72  70  94 CALM      30.07R
WINCHESTER     CLEAR     70  70 100 CALM      30.06R
MCMINNVILLE    PTCLDY    70  70 100 CALM      30.06R
COLUMBIA       MOCLDY    75  73  94 CALM      30.03R
$$

TNZ017-018-042-046-047-100400-
NORTHEAST TENNESSEE

CITY           SKY/WX    TMP DP  RH WIND       PRES   REMARKS
TRI CITIES     MOCLDY    73  66  78 SW5       30.06R
ELIZABETHTON   PTCLDY    66  66 100 CALM      30.08R
$$

TNZ012-013-036-069-073-074-100400-
CENTRAL EAST TENNESSEE

CITY           SKY/WX    TMP DP  RH WIND       PRES   REMARKS
KNOXVILLE      MOCLDY    70  68  93 CALM      30.05R
OAK RIDGE      CLOUDY    71  68  90 SW3       30.07R
$$

TNZ083-085-099-100400-
SOUTHEAST TENNESSEE

CITY           SKY/WX    TMP DP  RH WIND       PRES   REMARKS
CHATTANOOGA    MOCLDY    74  70  87 CALM      30.05R
$$

SKY/WX REPORTED AS FAIR MEANS FEW OR NO CLOUDS BELOW
12 THOUSAND FEET.



USA.gov is the U.S. government's official web portal to all federal, state and local government web resources and services.